EW9504 Weather Reports


Display with metric or nautical units.
time (UTC)temp
F
wind
direction
speed
MPH
gust
MPH
rain 1hr
in
rain 24hr
in
rain mn
in
humidity
%
barometer
mb
20260510031516 73 139 0.0 4.0 0.00 0.24 0.24 89 1010.3
20260510030014 72 129 0.0 3.0 0.00 0.24 0.24 94 1009.8
20260510024514 72 228 0.0 0.0 0.00 0.24 0.24 95 1009.4
20260510023013 72 228 0.0 0.0 0.00 0.24 0.24 95 1009.0
20260510021516 72 219 0.0 1.0 0.00 0.24 0.24 95 1008.7
20260510020013 72 136 0.0 1.0 0.00 0.24 0.24 95 1008.3
20260510014512 71 115 1.0 5.0 0.00 0.24 0.24 96 1007.7
20260510013011 70 20 0.0 1.0 0.03 0.24 0.24 95 1007.5
20260510011523 70 20 0.0 0.0 0.08 0.24 0.24 95 1007.3
20260510010010 70 20 0.0 2.0 0.11 0.24 0.24 94 1007.6
20260510004512 70 238 0.0 1.0 0.13 0.24 0.24 94 1006.9
20260510003010 69 248 0.0 2.0 0.12 0.22 0.22 93 1007.6
20260510001509 69 350 1.0 5.0 0.17 0.17 0.17 89 1008.0
20260510000008 72 53 3.0 11.0 0.13 0.13 0.13 84 1007.4
20260509234501 76 284 2.0 7.0 0.11 0.12 0.11 89 1006.9
20260509233000 79 9 0.0 2.0 0.11 0.12 0.11 87 1006.9
20260509231600 84 217 0.0 0.0 0.01 0.02 0.01 79 1007.1
20260509230101 87 217 0.0 0.0 0.00 0.01 0.00 69 1006.7
20260509224559 89 217 0.0 0.0 0.00 0.01 0.00 66 1006.4
20260509223106 91 129 0.0 1.0 0.00 0.01 0.00 64 1006.4
20260509221559 92 114 0.0 2.0 0.00 0.01 0.00 61 1006.2
20260509220100 93 21 0.0 0.0 0.00 0.01 0.00 61 1006.3
20260509214600 91 23 0.0 0.0 0.00 0.01 0.00 61 1006.4
20260509213056 93 121 0.0 0.0 0.00 0.01 0.00 61 1006.2
20260509211554 93 216 0.0 2.0 0.00 0.01 0.00 62 1006.3
20260509210100 92 32 0.0 2.0 0.00 0.01 0.00 63 1006.5
20260509204554 92 132 0.0 0.0 0.00 0.01 0.00 62 1006.7
20260509203048 92 229 1.0 4.0 0.00 0.01 0.00 62 1006.8
20260509201549 90 308 0.0 3.0 0.00 0.01 0.00 65 1007.1
20260509194544 89 304 0.0 4.0 0.00 0.01 0.00 67 1007.4
20260509193041 89 328 0.0 4.0 0.00 0.01 0.00 68 1007.6
20260509191541 88 17 0.0 0.0 0.00 0.01 0.00 66 1007.6
20260509190040 88 81 0.0 3.0 0.00 0.01 0.00 71 1007.5
20260509184553 88 60 0.0 0.0 0.00 0.04 0.00 69 1007.8
20260509183036 87 271 0.0 0.0 0.00 0.04 0.00 69 1008.0
20260509181545 87 210 0.0 4.0 0.00 0.04 0.00 71 1008.3
20260509180036 87 281 0.0 3.0 0.00 0.04 0.00 69 1008.6
20260509174538 90 128 0.0 3.0 0.00 0.06 0.00 72 1008.7
20260509173035 87 318 0.0 3.0 0.00 0.06 0.00 75 1009.1
20260509171534 87 15 0.0 3.0 0.00 0.06 0.00 77 1009.3
20260509170027 85 127 0.0 4.0 0.00 0.06 0.00 81 1009.5
20260509164524 83 4 0.0 0.0 0.00 0.07 0.00 83 1009.5
20260509163024 82 133 0.0 0.0 0.00 0.07 0.00 85 1009.5
20260509161520 81 133 0.0 0.0 0.00 0.07 0.00 87 1009.3
20260509160014 80 130 0.0 0.0 0.00 0.07 0.00 88 1009.4
20260509154516 79 130 0.0 0.0 0.00 0.09 0.00 89 1009.2
20260509153027 79 130 0.0 0.0 0.00 0.09 0.00 91 1009.2
20260509151510 78 130 0.0 0.0 0.00 0.09 0.00 93 1009.3
20260509150009 77 139 0.0 0.0 0.00 0.09 0.00 94 1009.1
20260509144514 77 139 0.0 0.0 0.00 0.09 0.00 96 1008.9
20260509143003 76 139 0.0 0.0 0.00 0.09 0.00 97 1008.7
20260509141503 76 139 0.0 0.0 0.00 0.09 0.00 98 1008.2
20260509140000 76 139 0.0 0.0 0.00 0.09 0.00 98 1008.1
20260509134613 76 139 0.0 0.0 0.00 0.09 0.00 99 1008.8
20260509133059 75 139 0.0 0.0 0.00 0.09 0.00 99 1009.2
20260509131601 75 139 0.0 0.0 0.00 0.09 0.00 99 1009.5
20260509124557 75 149 0.0 0.0 0.00 0.09 0.00 99 1008.9
20260509123130 74 131 0.0 0.0 0.00 0.09 0.00 99 1009.4
20260509121612 74 131 0.0 0.0 0.00 0.09 0.00 99 1009.3
20260509120113 74 131 0.0 0.0 0.00 0.09 0.00 99 1009.3
20260509114600 74 131 0.0 0.0 0.00 0.09 0.00 99 1009.1
20260509113055 73 131 0.0 0.0 0.00 0.09 0.00 99 1008.8
20260509111603 73 131 0.0 0.0 0.00 0.09 0.00 99 1008.6
20260509110051 74 131 0.0 0.0 0.00 0.09 0.00 99 1008.7
20260509104551 73 131 0.0 0.0 0.00 0.09 0.00 98 1008.5
20260509103101 74 131 0.0 0.0 0.00 0.09 0.00 99 1008.4
20260509101618 74 131 0.0 0.0 0.00 0.09 0.00 99 1008.6
20260509100050 74 131 0.0 0.0 0.00 0.09 0.00 98 1008.5
20260509094549 74 131 0.0 0.0 0.00 0.09 0.00 98 1007.9
20260509093049 74 131 0.0 0.0 0.00 0.09 0.00 98 1008.0
20260509091548 74 131 0.0 0.0 0.00 0.09 0.00 98 1008.0
20260509090053 74 131 0.0 0.0 0.00 0.09 0.00 98 1008.4
20260509084547 74 131 0.0 0.0 0.00 0.09 0.00 98 1008.3
20260509083046 74 131 0.0 0.0 0.00 0.09 0.00 98 1008.2
20260509081547 75 131 0.0 0.0 0.00 0.09 0.00 98 1008.1
20260509080048 75 131 0.0 0.0 0.00 0.09 0.00 98 1008.1
20260509074549 75 131 0.0 2.0 0.00 0.09 0.00 97 1007.9
20260509073054 75 113 0.0 0.0 0.00 0.09 0.00 97 1008.0
20260509071550 75 113 0.0 0.0 0.00 0.09 0.00 97 1008.5
20260509070046 75 113 0.0 0.0 0.00 0.09 0.00 97 1008.8
20260509064546 75 113 0.0 0.0 0.00 0.09 0.00 97 1008.9
20260509063044 75 113 0.0 1.0 0.00 0.09 0.00 97 1008.8
20260509061538 75 113 0.0 0.0 0.00 0.09 0.00 97 1008.7
20260509060039 75 113 0.0 1.0 0.00 0.09 0.00 97 1008.9
20260509054545 74 128 0.0 0.0 0.00 0.09 0.00 97 1009.0
20260509053034 74 133 0.0 0.0 0.00 0.09 0.00 97 1009.0
20260509051533 74 130 0.0 2.0 0.00 0.09 0.00 96 1009.0
20260509050031 74 129 0.0 1.0 0.00 0.09 0.00 96 1009.0
20260509044529 74 134 0.0 2.0 0.00 0.09 0.09 96 1008.9
20260509043028 74 131 0.0 1.0 0.00 0.09 0.09 96 1009.1
20260509041539 74 131 0.0 3.0 0.00 0.09 0.09 96 1009.1
20260509040030 74 134 0.0 3.0 0.00 0.09 0.09 96 1009.1
20260509034527 74 132 0.0 1.0 0.00 0.09 0.09 96 1009.1
20260509033027 74 136 0.0 2.0 0.00 0.09 0.09 95 1008.6